Change the Weather History Date:

Sunday, April 13, 2014

  Actual Average Record
Temperature  
Mean Temperature 71 °F 64 °F  
Max Temperature 84 °F 77 °F 89 °F (1966)
Min Temperature 58 °F 52 °F 34 °F (1989)
Degree Days  
Heating Degree Days 0 3  
Month to date heating degree days 25 54  
Since 1 July heating degree days 2220 1949  
Cooling Degree Days 6 3  
Month to date cooling degree days 30 29  
Year to date cooling degree days 56 77  
Growing Degree Days 20 (Base 50)    
Moisture  
Dew Point 60 °F    
Average Humidity 72    
Maximum Humidity 100    
Minimum Humidity 43    
Precipitation  
Precipitation 0.00 in 0.18 in 4.90 in (1974)
Month to date precipitation 1.90 2.35  
Year to date precipitation 18.17 18.98  
Sea Level Pressure  
Sea Level Pressure 30.01 in    
Wind  
Wind Speed 10 mph (SSE)    
Max Wind Speed 24 mph    
Max Gust Speed 31 mph    
Visibility 8 miles    
Events      
T = Trace of Precipitation, MM = Missing Value Source: NWS Daily Summary

Daily Weather History Graph

Daily Weather History Graph

Search for Another Location

Airport or City:

Trip Planner

Search our weather history database for the weather conditions in past years. The results will help you decide how hot, cold, wet, or windy it might be!

Date:

Astronomy

Apr. 13, 2014 Rise Set
Actual Time 6:31 AM CDT 7:24 PM CDT
Civil Twilight 6:06 AM CDT 7:49 PM CDT
Nautical Twilight 5:37 AM CDT 8:18 PM CDT
Astronomical Twilight 5:07 AM CDT 8:48 PM CDT
Moon 6:06 PM CDT (4/13) 5:23 AM CDT (4/13)
Length of Visible Light 13h 42m
Length of Day
12h 53m
Waxing Gibbous, 97% of the Moon is Illuminated
Apr 13
Waxing Gibbous
Apr 15
Full
Apr 22
Last Quarter
Apr 29
New
May 6
First Quarter

Hourly Weather History & Observations

Time (CDT) Temp. Heat Index Dew Point Humidity Pressure Visibility Wind Dir Wind Speed Gust Speed Precip Events Conditions
12:53 AM 62.1 °F - 57.0 °F 84% 30.06 in 10.0 mi South 5.8 mph - N/A   Clear
1:53 AM 62.1 °F - 57.9 °F 86% 30.03 in 10.0 mi SSE 6.9 mph - N/A   Clear
2:53 AM 61.0 °F - 57.9 °F 90% 30.03 in 10.0 mi Calm Calm - N/A   Clear
3:53 AM 59.0 °F - 57.0 °F 93% 30.02 in 10.0 mi Calm Calm - N/A   Clear
4:23 AM 59.0 °F - 57.0 °F 93% 30.03 in 7.0 mi South 3.5 mph - N/A   Scattered Clouds
4:31 AM 60.1 °F - 57.9 °F 93% 30.02 in 9.0 mi Calm Calm - N/A   Mostly Cloudy
4:39 AM 61.0 °F - 59.0 °F 93% 30.03 in 8.0 mi South 3.5 mph - N/A   Mostly Cloudy
4:53 AM 61.0 °F - 60.1 °F 97% 30.02 in 2.0 mi South 4.6 mph - N/A   Overcast
4:59 AM 61.0 °F - 61.0 °F 100% 30.02 in 0.8 mi South 4.6 mph - N/A   Overcast
5:41 AM 62.1 °F - 62.1 °F 100% 30.02 in 1.0 mi South 5.8 mph - N/A   Mist
5:53 AM 62.1 °F - 62.1 °F 100% 30.02 in 1.0 mi SE 4.6 mph - N/A   Mist
6:50 AM 62.6 °F - 62.6 °F 100% 30.04 in 2.0 mi SE 8.1 mph - N/A   Overcast
6:53 AM 63.0 °F - 62.1 °F 97% 30.04 in 2.5 mi SSE 8.1 mph - N/A   Overcast
7:19 AM 63.0 °F - 62.1 °F 97% 30.05 in 3.0 mi SSE 10.4 mph - N/A   Overcast
7:53 AM 64.0 °F - 62.1 °F 93% 30.05 in 7.0 mi SSE 9.2 mph 24.2 mph N/A   Overcast
8:04 AM 64.9 °F - 63.0 °F 93% 30.06 in 7.0 mi SE 9.2 mph - N/A   Overcast
8:53 AM 68.0 °F - 63.0 °F 84% 30.06 in 10.0 mi SE 10.4 mph - N/A   Scattered Clouds
9:53 AM 73.0 °F - 64.0 °F 73% 30.06 in 10.0 mi SE 12.7 mph - N/A   Clear
10:53 AM 77.0 °F - 64.0 °F 64% 30.06 in 10.0 mi SSE 10.4 mph - N/A   Mostly Cloudy
11:53 AM 81.0 °F 81.9 °F 62.1 °F 52% 30.04 in 10.0 mi South 13.8 mph 21.9 mph N/A   Scattered Clouds
12:53 PM 82.9 °F 83.2 °F 60.1 °F 46% 30.03 in 10.0 mi South 15.0 mph 29.9 mph N/A   Scattered Clouds
1:53 PM 82.0 °F 82.1 °F 59.0 °F 45% 30.01 in 10.0 mi South 21.9 mph 31.1 mph N/A   Scattered Clouds
2:53 PM 82.0 °F 82.0 °F 57.9 °F 44% 29.98 in 10.0 mi South 18.4 mph 26.5 mph N/A   Clear
3:53 PM 81.0 °F 81.1 °F 57.9 °F 45% 29.97 in 10.0 mi SSE 13.8 mph - N/A   Scattered Clouds
4:53 PM 79.0 °F - 55.9 °F 45% 29.96 in 10.0 mi South 16.1 mph 21.9 mph N/A   Clear
5:53 PM 78.1 °F - 57.0 °F 48% 29.94 in 10.0 mi SSE 15.0 mph - N/A   Clear
7:53 PM 73.0 °F - 59.0 °F 61% 29.95 in 10.0 mi South 5.8 mph - N/A   Scattered Clouds
8:53 PM 72.0 °F - 61.0 °F 68% 29.94 in 10.0 mi SSE 8.1 mph - N/A   Scattered Clouds
9:53 PM 69.1 °F - 62.1 °F 78% 29.95 in 10.0 mi SE 6.9 mph - N/A   Partly Cloudy
10:53 PM 69.1 °F - 64.9 °F 87% 29.94 in 10.0 mi SSE 8.1 mph - N/A   Clear
11:53 PM 68.0 °F - 64.9 °F 90% 29.91 in 10.0 mi SSE 8.1 mph - N/A   Partly Cloudy